Regional Weather Roundup
Issued by NWS

Home | Current Version | Previous Version | Text Only | Print | Product List | Glossary Off
Versions: 1 2 3 4 5 6 7 8 9 10 11 12 13 14 15 16 17 18 19 20 21 22 23 24 25 26 27 28 29 30 31 32 33 34 35 36 37 38 39 40 41 42 43 44 45 46 47 48 49 50

000
ASUS43 KIND 031909
RWRIN

WEATHER ROUNDUP FOR INDIANA
NATIONAL WEATHER SERVICE INDIANAPOLIS IN
300 PM EDT MON AUG 03 2015

NOTE: "FAIR" INDICATES FEW OR NO CLOUDS BELOW 12,000 FEET WITH NO
SIGNIFICANT WEATHER AND/OR OBSTRUCTIONS TO VISIBILITY.

* - STATION DOES NOT REPORT WEATHER SUCH AS PRECIPITATION OR FOG.

+ - STATION NOT QUALITY CONTROLLED BY THE NATIONAL WEATHER SERVICE.
    USE DATA WITH CAUTION...ESPECIALLY DEWPOINT AND RELATIVE
    HUMIDITY OBSERVATIONS.

INZ001>003-010>013-019-020-032000-
NORTHWEST INDIANA

CITY           SKY/WX    TMP DP  RH WIND       PRES   REMARKS
GARY /AIRPORT/ MOSUNNY   79  57  47 NE9       29.87S
KNOX *+        SUNNY     79  59  50 N10       29.85S
LA PORTE +     SUNNY     78  59  51 N6        29.87F
MICHIGAN CITY+ SUNNY     75  52  43 N8        29.87S
MONTICELLO +   MOSUNNY   81  64  56 NW8       29.85S
RENSSELAER +   MOSUNNY   82  59  44 W13G18    29.87R
VALPARAISO     SUNNY     79  59  50 NW7       29.87S

$$

LMZ046-743>745-032000-
SOUTHERN LAKE MICHIGAN

STATION/POSITION TIME  TEMP    WIND        PRES    WAVE
                       AIR SEA DIR/SP/G            HT
                 (UTC) (F)     (DEG/KT/KT) (MB)    (FT)
BURNS HARBOR     1800   72      30/  7/  9 1011.9S
MICHIGAN CITY    1800   73     330/  8/  9   N/A
5NW MICH CITY    1900   72 74   10/  4/  6   N/A     3

$$

INZ004-005-014>016-021>024-032000-
NORTH CENTRAL INDIANA

CITY           SKY/WX    TMP DP  RH WIND       PRES   REMARKS
ELKHART        SUNNY     81  55  41 NW17      29.86R
GOSHEN         MOSUNNY   78  61  55 NW15      29.84R
LOGANSPORT +   MOSUNNY   81  57  44 W8        29.86S
PERU/GRISSOM   MOSUNNY   83  64  52 W10       29.84S
ROCHESTER +    MOSUNNY   82  59  44 W13G22    29.86R
SOUTH BEND     SUNNY     78  55  44 NW15      29.86S
WARSAW +       MOSUNNY   81  61  50 NW16      29.84S

$$

INZ006>009-017-018-025>027-032000-
NORTHEAST INDIANA

CITY           SKY/WX    TMP DP  RH WIND       PRES   REMARKS
ANGOLA *+      MOSUNNY   81  63  54 W12       29.83R
AUBURN +       MOSUNNY   81  59  47 W9G16     29.84S
FORT WAYNE     PTSUNNY   82  63  52 NW12      29.83F
HUNTINGTON +   PTSUNNY   81  64  57 W8        29.83F

$$

INZ028-029-035-036-043>045-051>053-032000-
WEST CENTRAL INDIANA

CITY           SKY/WX    TMP DP  RH WIND       PRES   REMARKS
CRAWFORDSVL +  MOSUNNY   82  65  55 W12       29.86
GREENCASTLE +  MOSUNNY   84  63  48 W7        29.87S
LAFAYETTE      MOSUNNY   84  66  54 NW8       29.85S
TERRE HAUTE    MOSUNNY   89  68  49 W9        29.87R

$$

INZ030>032-037>040-046>048-054>057-064-065-032000-
CENTRAL INDIANA

CITY           SKY/WX    TMP DP  RH WIND       PRES   REMARKS
FISHERS *+     MOSUNNY   84  72  65 W13       29.84S
FRANKFORT +    MOSUNNY   84  70  61 NW8       29.88S
GREENWOOD *+   PTSUNNY   84  68  58 W10       29.85F
INDIANAPOLIS   PTSUNNY   89  67  47 W16       29.84R
-EAGLE CREEK   MOSUNNY   86  67  52 W13G18    29.84S
KOKOMO *+      MOSUNNY   82  64  54 NW14      29.85S
MARION +       MOSUNNY   80  66  61 NW12G17   29.85S
MT COMFORT *+  MOSUNNY   84  70  61 W7        29.84F
SHELBYVILLE    SUNNY     86  73  65 SW10      29.84F
ZIONSVILLE +   MOSUNNY   85  66  52 W12G20    29.86S

$$

INZ033-034-041-042-049-050-058-059-032000-
EAST CENTRAL INDIANA

CITY           SKY/WX    TMP DP  RH WIND       PRES   REMARKS
MUNCIE         MOSUNNY   81  70  69 W7        29.83F

$$

INZ060-061-067>069-081>083-085>088-032000-
SOUTHWEST INDIANA

CITY           SKY/WX    TMP DP  RH WIND       PRES   REMARKS
EVANSVILLE     MOSUNNY   92  67  43 W12       29.88F HX  95
HUNTINGBURG *+ SUNNY     91  68  46 W16       29.88S HX  95
WASHINGTON +   SUNNY     89  63  41 W10       29.86F

$$

INZ062-063-066-070>080-084-089>092-032000-
SOUTH CENTRAL AND SOUTHEAST INDIANA

CITY           SKY/WX    TMP DP  RH WIND       PRES   REMARKS
BLOOMINGTON    MOSUNNY   88  69  53 W13       29.87S
MADISON *+     SUNNY     86  64  48 SW10      29.90S
NORTH VERNON + MOSUNNY   86  66  51 SW8       29.88S
SEYMOUR +      PTSUNNY   88  70  55 SW8       29.86F

$$



USA.gov is the U.S. government's official web portal to all federal, state and local government web resources and services.